Rochester, NH

9:00 AM EDT on August 23, 2017 (GMT -0400)
Skyhaven

Weather History for KDAW - July, 2013

Change the Weather History Date:

Saturday, July 20, 2013

  Actual Average (KPSM) Record (KPSM)
Temperature  
Mean Temperature 80 °F -  
Max Temperature 89 °F 77 °F 98 °F (1977)
Min Temperature 72 °F 59 °F 51 °F (2000)
Cooling Degree Days 16    
Growing Degree Days 30 (Base 50)    
Moisture  
Dew Point 66 °F    
Average Humidity 63    
Maximum Humidity 78    
Minimum Humidity 49    
Precipitation  
Precipitation 0.00 in - - ()
Sea Level Pressure  
Sea Level Pressure 29.68 in    
Wind  
Wind Speed 4 mph (WNW)    
Max Wind Speed 9 mph    
Max Gust Speed 20 mph    
Visibility 10 miles    
Events      
Averages and records for this station are not official NWS values.
T = Trace of Precipitation, MM = Missing Value Source: NWS Daily Summary

Daily Weather History Graph

Daily Weather History Graph

Search for Another Location

Airport or City:

Trip Planner

Search our weather history database for the weather conditions in past years. The results will help you decide how hot, cold, wet, or windy it might be!

Date:

Astronomy

Jul. 20, 2013 Rise Set
Actual Time 5:21 AM EDT 8:17 PM EDT
Civil Twilight 4:48 AM EDT 8:51 PM EDT
Nautical Twilight 4:05 AM EDT 9:34 PM EDT
Astronomical Twilight 3:14 AM EDT 10:24 PM EDT
Moon 6:17 PM EDT (7/20) 2:58 AM EDT (7/20)
Length of Visible Light 16h 03m
Length of Day
14h 55m
Waxing Gibbous, 93% of the Moon is Illuminated
Jul 20
Waxing Gibbous
Jul 22
Full
Jul 29
Last Quarter
Aug 6
New
Aug 14
First Quarter

Hourly Weather History & Observations

Time (EDT) Temp. Heat Index Dew Point Humidity Pressure Visibility Wind Dir Wind Speed Gust Speed Precip Events Conditions
12:51 AM 82.9 °F 85.8 °F 68.0 °F 60% 29.69 in 10.0 mi West 9.2 mph 19.6 mph N/A   Scattered Clouds
1:51 AM 77.0 °F - 66.0 °F 69% 29.67 in 10.0 mi Variable 3.5 mph - N/A   Clear
2:51 AM 75.0 °F - 64.9 °F 71% 29.67 in 10.0 mi Calm Calm - N/A   Clear
3:51 AM 75.0 °F - 64.0 °F 69% 29.67 in 10.0 mi Calm Calm - N/A   Clear
4:51 AM 72.0 °F - 64.9 °F 78% 29.68 in 10.0 mi Calm Calm - N/A   Clear
5:51 AM 73.0 °F - 64.0 °F 73% 29.68 in 10.0 mi Calm Calm - N/A   Clear
6:51 AM 75.0 °F - 66.0 °F 73% 29.69 in 10.0 mi Calm Calm - N/A   Clear
7:51 AM 78.1 °F - 66.0 °F 66% 29.71 in 10.0 mi WNW 3.5 mph - N/A   Partly Cloudy
8:51 AM 80.1 °F 82.3 °F 66.9 °F 64% 29.70 in 10.0 mi Calm Calm - N/A   Clear
9:51 AM 82.0 °F 84.9 °F 68.0 °F 62% 29.68 in 10.0 mi Variable 3.5 mph - N/A   Clear
10:51 AM 84.9 °F 87.6 °F 66.9 °F 55% 29.68 in 10.0 mi Calm Calm - N/A   Clear
11:51 AM 86.0 °F 88.8 °F 66.9 °F 53% 29.66 in 10.0 mi Calm Calm - N/A   Clear
12:51 PM 88.0 °F 90.7 °F 66.9 °F 49% 29.65 in 10.0 mi West 9.2 mph - N/A   Partly Cloudy
1:51 PM 87.1 °F 91.3 °F 69.1 °F 55% 29.64 in 10.0 mi Variable 4.6 mph - N/A   Clear
2:51 PM 89.1 °F 92.9 °F 68.0 °F 50% 29.63 in 10.0 mi Variable 6.9 mph - N/A   Partly Cloudy
3:51 PM 89.1 °F 92.9 °F 68.0 °F 50% 29.63 in 10.0 mi Variable 5.8 mph - N/A   Clear
4:51 PM 87.1 °F 89.9 °F 66.9 °F 51% 29.63 in 10.0 mi West 8.1 mph - N/A   Partly Cloudy
5:51 PM 86.0 °F 88.2 °F 66.0 °F 51% 29.66 in 10.0 mi Variable 4.6 mph - N/A   Scattered Clouds
6:51 PM 81.0 °F 83.0 °F 66.0 °F 60% 29.67 in 10.0 mi Variable 4.6 mph - N/A   Mostly Cloudy
7:51 PM 78.1 °F - 64.9 °F 64% 29.69 in 10.0 mi Variable 5.8 mph - N/A   Mostly Cloudy
8:51 PM 75.9 °F - 64.9 °F 69% 29.72 in 10.0 mi Variable 4.6 mph - N/A   Scattered Clouds
9:51 PM 75.9 °F - 64.0 °F 67% 29.74 in 10.0 mi Variable 3.5 mph - N/A   Partly Cloudy
10:51 PM 73.0 °F - 64.0 °F 73% 29.76 in 10.0 mi Calm Calm - N/A   Clear
11:51 PM 72.0 °F - 64.0 °F 76% 29.78 in 10.0 mi NW 4.6 mph - N/A   Clear